• In Lithuania
  • List of Countries
  • For 7 days
  • Water Temperature
  • Satellite Maps
  • Weather Map
  • Weather Widgets
  • user-avatar
    Login

    Hourly Weather Igls

    Today, 23 July, Sunday

    Time Temperature Precipitation Wind Pressure Humidity
    00:00 +18°C° 1.7 mm 1 mps 685 mmHg 94%
    01:00 +18°C° 1.7 mm 1 mps 685 mmHg 95%
    02:00 +18°C° 1 mm 1 mps 685 mmHg 95%
    03:00 +18°C° 1 mm 1 mps 686 mmHg 95%
    04:00 +18°C° 1 mm 1 mps 686 mmHg 95%
    05:00 +18°C° 0.2 mm 1 mps 686 mmHg 92%
    06:00 +19°C° 0.2 mm 1 mps 686 mmHg 90%
    07:00 +18°C° 0.2 mm 0 mps 686 mmHg 87%
    08:00 +21°C° 0.2 mm 1 mps 686 mmHg 82%
    09:00 +22°C° 0.2 mm 1 mps 687 mmHg 77%
    10:00 +23°C° 0.2 mm 1 mps 687 mmHg 71%
    11:00 +23°C° 0.3 mm 1 mps 687 mmHg 73%
    12:00 +23°C° 0.3 mm 1 mps 687 mmHg 75%
    13:00 +22°C° 0 mm 1 mps 686 mmHg 77%
    14:00 +22°C° 0.7 mm 1 mps 686 mmHg 78%
    15:00 +22°C° 0.7 mm 1 mps 686 mmHg 80%
    16:00 +22°C° 0.7 mm 1 mps 686 mmHg 82%
    17:00 +21°C° 0.8 mm 1 mps 686 mmHg 86%
    18:00 +21°C° 0.8 mm 1 mps 685 mmHg 89%
    19:00 +20°C° 0.8 mm 1 mps 685 mmHg 92%
    20:00 +19°C° 1 mm 1 mps 685 mmHg 94%
    21:00 +19°C° 1 mm 1 mps 685 mmHg 96%
    22:00 +18°C° 1 mm 1 mps 685 mmHg 97%
    23:00 +18°C° 0.9 mm 1 mps 685 mmHg 97%

    Tomorrow, 24 July, Monday

    Time Temperature Precipitation Wind Pressure Humidity
    00:00 +18°C° 0.9 mm 1 mps 684 mmHg 97%
    01:00 +18°C° 0.9 mm 1 mps 684 mmHg 98%
    02:00 +15°C° 1 mm 0 mps 683 mmHg 98%
    03:00 +15°C° 1 mm 0 mps 683 mmHg 98%
    04:00 +15°C° 1 mm 0 mps 682 mmHg 98%
    05:00 +15°C° 1.2 mm 0 mps 682 mmHg 97%
    06:00 +18°C° 1.2 mm 1 mps 682 mmHg 96%
    07:00 +18°C° 1.2 mm 1 mps 681 mmHg 95%
    08:00 +18°C° 1.3 mm 1 mps 681 mmHg 93%
    09:00 +18°C° 1.3 mm 1 mps 681 mmHg 91%
    10:00 +19°C° 1.3 mm 1 mps 681 mmHg 88%
    11:00 +18°C° 2.4 mm 1 mps 681 mmHg 90%
    12:00 +17°C° 2.4 mm 2 mps 680 mmHg 91%
    13:00 +16°C° 2.4 mm 2 mps 680 mmHg 92%
    14:00 +16°C° 2.9 mm 2 mps 680 mmHg 94%
    15:00 +15°C° 2.9 mm 2 mps 680 mmHg 95%
    16:00 +15°C° 2.9 mm 2 mps 680 mmHg 97%
    17:00 +14°C° 1.2 mm 2 mps 680 mmHg 96%
    18:00 +14°C° 1.2 mm 2 mps 681 mmHg 96%
    19:00 +14°C° 1.2 mm 2 mps 681 mmHg 96%
    20:00 +13°C° 0.2 mm 2 mps 681 mmHg 96%
    21:00 +13°C° 0.2 mm 2 mps 681 mmHg 96%
    22:00 +12°C° 0.2 mm 2 mps 681 mmHg 96%
    23:00 +12°C° 0.1 mm 2 mps 681 mmHg 96%

    Day after tomorrow, 25 July, Tuesday

    Time Temperature Precipitation Wind Pressure Humidity
    00:00 +10°C° 0.1 mm 2 mps 681 mmHg 96%
    01:00 +10°C° 0.1 mm 2 mps 681 mmHg 96%
    02:00 +10°C° 0.2 mm 2 mps 680 mmHg 96%
    03:00 +9°C° 0.2 mm 2 mps 680 mmHg 96%
    04:00 +9°C° 0.2 mm 2 mps 680 mmHg 96%
    05:00 +10°C° 0 mm 2 mps 680 mmHg 94%
    06:00 +12°C° 0 mm 2 mps 680 mmHg 93%
    07:00 +13°C° 0 mm 2 mps 680 mmHg 91%
    08:00 +14°C° 0.2 mm 2 mps 680 mmHg 84%
    09:00 +15°C° 0.2 mm 2 mps 680 mmHg 77%
    10:00 +16°C° 0.2 mm 2 mps 680 mmHg 70%
    11:00 +17°C° 0.6 mm 2 mps 680 mmHg 68%
    12:00 +17°C° 0.6 mm 2 mps 680 mmHg 65%
    13:00 +18°C° 0.6 mm 3 mps 680 mmHg 63%
    14:00 +18°C° 0.7 mm 3 mps 680 mmHg 65%
    15:00 +17°C° 0.7 mm 3 mps 680 mmHg 68%
    16:00 +17°C° 0.7 mm 3 mps 680 mmHg 70%
    17:00 +16°C° 0.4 mm 2 mps 680 mmHg 75%
    18:00 +15°C° 0.4 mm 2 mps 680 mmHg 79%
    19:00 +14°C° 0.4 mm 1 mps 680 mmHg 84%
    20:00 +13°C° 0.1 mm 1 mps 680 mmHg 87%
    21:00 +12°C° 0.1 mm 1 mps 680 mmHg 90%
    22:00 +11°C° 0.1 mm 1 mps 680 mmHg 93%
    23:00 +11°C° 0.1 mm 1 mps 679 mmHg 92%

    26 July, Wednesday

    Time Temperature Precipitation Wind Pressure Humidity
    00:00 +11°C° 0.1 mm 1 mps 679 mmHg 91%
    01:00 +11°C° 0.1 mm 1 mps 679 mmHg 91%
    02:00 +11°C° 0.5 mm 1 mps 679 mmHg 91%
    03:00 +11°C° 0.5 mm 1 mps 678 mmHg 90%
    04:00 +11°C° 0.5 mm 1 mps 678 mmHg 90%
    05:00 +11°C° 1.2 mm 1 mps 678 mmHg 90%
    06:00 +12°C° 1.2 mm 1 mps 678 mmHg 90%
    07:00 +12°C° 1.2 mm 1 mps 678 mmHg 90%
    08:00 +12°C° 2 mm 1 mps 678 mmHg 90%
    09:00 +12°C° 2 mm 1 mps 679 mmHg 90%
    10:00 +13°C° 2 mm 1 mps 679 mmHg 90%
    11:00 +13°C° 1.6 mm 1 mps 679 mmHg 89%
    12:00 +13°C° 1.6 mm 2 mps 679 mmHg 89%
    13:00 +13°C° 1.6 mm 2 mps 680 mmHg 88%
    14:00 +14°C° 0.7 mm 2 mps 680 mmHg 87%
    15:00 +14°C° 0.7 mm 2 mps 680 mmHg 86%
    16:00 +14°C° 0.7 mm 2 mps 680 mmHg 85%
    17:00 +13°C° 0.1 mm 2 mps 681 mmHg 86%
    18:00 +13°C° 0.1 mm 2 mps 681 mmHg 87%
    19:00 +13°C° 0.1 mm 2 mps 681 mmHg 87%
    20:00 +12°C° 0 mm 2 mps 682 mmHg 89%
    21:00 +10°C° 0 mm 2 mps 682 mmHg 91%
    22:00 +9°C° 0 mm 2 mps 682 mmHg 93%
    23:00 +8°C° 0 mm 2 mps 682 mmHg 92%

    27 July, Thursday

    Time Temperature Precipitation Wind Pressure Humidity
    00:00 +8°C° 0 mm 2 mps 682 mmHg 91%
    01:00 +8°C° 0 mm 2 mps 683 mmHg 89%
    02:00 +8°C° 0 mm 2 mps 683 mmHg 89%
    03:00 +8°C° 0 mm 2 mps 683 mmHg 88%
    04:00 +8°C° 0 mm 2 mps 683 mmHg 87%
    05:00 +11°C° 0 mm 1 mps 683 mmHg 84%
    06:00 +12°C° 0 mm 1 mps 683 mmHg 82%
    07:00 +13°C° 0 mm 1 mps 684 mmHg 79%
    08:00 +16°C° 0 mm 1 mps 684 mmHg 71%
    09:00 +19°C° 0 mm 1 mps 684 mmHg 63%
    10:00 +21°C° 0 mm 1 mps 685 mmHg 55%
    11:00 +22°C° 0 mm 1 mps 685 mmHg 53%
    12:00 +23°C° 0 mm 1 mps 684 mmHg 51%
    13:00 +24°C° 0 mm 2 mps 684 mmHg 49%
    14:00 +24°C° 0 mm 2 mps 684 mmHg 52%
    15:00 +24°C° 0 mm 2 mps 684 mmHg 54%
    16:00 +23°C° 0 mm 2 mps 684 mmHg 57%
    17:00 +21°C° 0.1 mm 2 mps 684 mmHg 65%
    18:00 +20°C° 0.1 mm 2 mps 684 mmHg 73%
    19:00 +20°C° 0.1 mm 1 mps 684 mmHg 82%
    20:00 +18°C° 0.1 mm 1 mps 684 mmHg 85%
    21:00 +16°C° 0.1 mm 1 mps 684 mmHg 89%
    22:00 +14°C° 0.1 mm 1 mps 684 mmHg 93%
    23:00 +14°C° 0 mm 1 mps 685 mmHg 92%

    28 July, Friday

    Time Temperature Precipitation Wind Pressure Humidity
    00:00 +14°C° 0 mm 1 mps 685 mmHg 91%
    01:00 +14°C° 0 mm 1 mps 685 mmHg 91%
    02:00 +13°C° 0 mm 1 mps 685 mmHg 91%
    03:00 +13°C° 0 mm 1 mps 685 mmHg 91%
    04:00 +13°C° 0 mm 1 mps 684 mmHg 91%
    05:00 +14°C° 0 mm 1 mps 685 mmHg 87%
    06:00 +16°C° 0 mm 1 mps 686 mmHg 83%
    07:00 +19°C° 0 mm 1 mps 686 mmHg 79%
    08:00 +21°C° 0 mm 1 mps 686 mmHg 71%
    09:00 +23°C° 0 mm 1 mps 687 mmHg 63%
    10:00 +25°C° 0 mm 1 mps 687 mmHg 55%
    11:00 +24°C° 0.1 mm 1 mps 687 mmHg 57%
    12:00 +24°C° 0.1 mm 2 mps 687 mmHg 59%
    13:00 +24°C° 0.1 mm 2 mps 687 mmHg 61%
    14:00 +23°C° 0.1 mm 2 mps 687 mmHg 67%
    15:00 +23°C° 0.1 mm 2 mps 687 mmHg 72%
    16:00 +21°C° 0.1 mm 2 mps 687 mmHg 77%
    17:00 +20°C° 0.2 mm 2 mps 687 mmHg 81%
    18:00 +20°C° 0.2 mm 2 mps 687 mmHg 84%
    19:00 +21°C° 0.2 mm 1 mps 687 mmHg 87%
    20:00 +19°C° 0.2 mm 1 mps 688 mmHg 90%
    21:00 +18°C° 0.2 mm 1 mps 688 mmHg 93%
    22:00 +16°C° 0.2 mm 1 mps 688 mmHg 96%
    23:00 +16°C° 0 mm 1 mps 688 mmHg 96%
    Show more